{"data":{"norad_id":53774,"epoch":"2026-05-25T04:07:24.475584Z","epoch_age_seconds":67041,"freshness":"FRESH","line1":"1 53774U 22111B   26145.17181106  .00000140  00000+0  26873-4 0  9990","line2":"2 53774  53.2160 300.6613 0001272  88.8036 271.3102 15.08841483205251","mean_motion":15.08841483,"eccentricity":0.0001272,"inclination_deg":53.216,"raan_deg":300.6613,"arg_perigee_deg":88.8036,"mean_anomaly_deg":271.3102,"bstar":2.6873e-5,"rev_number":20525,"period_min":95.437460874742,"perigee_km":538.85890222121,"apogee_km":540.61880983899,"semimajor_km":6917.8758560301,"source":"CELESTRAK","updated_at":"2026-05-25T13:38:17.540901Z"}}